Weather History for Mount Pleasant, MI

Change the Weather History Date:

Saturday, September 7, 2013

  Actual Average (KAMN) Record (KAMN)
Temperature  
Mean Temperature 72 °F -  
Max Temperature 77 °F 77 °F 94 °F (1959)
Min Temperature 66 °F 52 °F 36 °F (1986)
Cooling Degree Days 6    
Growing Degree Days 22 (Base 50)    
Moisture  
Dew Point 62 °F    
Average Humidity 75    
Maximum Humidity 89    
Minimum Humidity 61    
Precipitation  
Precipitation 0.11 in - - ()
Sea Level Pressure  
Sea Level Pressure 29.95 in    
Wind  
Wind Speed 5 mph (SW)    
Max Wind Speed 9 mph    
Max Gust Speed -    
Visibility 10 miles    
Events Rain    
Averages and records for this station are not official NWS values.
T = Trace of Precipitation, MM = Missing Value Source: NWS Daily Summary

Daily Weather History Graph

Daily Weather History Graph

Search for Another Location

Airport:

Trip Planner

Search our weather history database for the weather conditions in past years. The results will help you decide how hot, cold, wet, or windy it might be!

Date:

Astronomy

Sep. 07, 2013 Rise Set
Actual Time 7:09 AM EDT 8:03 PM EDT
Civil Twilight 6:40 AM EDT 8:32 PM EDT
Nautical Twilight 6:05 AM EDT 9:06 PM EDT
Astronomical Twilight 5:29 AM EDT 9:43 PM EDT
Moon 9:29 AM EDT (9/7) 8:54 PM EDT (9/7)
Length of Visible Light 13h 51m
Length of Day
12h 53m
Waxing Crescent, 5% of the Moon is Illuminated
Sep 7
Waxing Crescent
Sep 12
First Quarter
Sep 19
Full
Sep 26
Last Quarter
Oct 4
New

Hourly Weather History & Observations

Time (EDT) Temp. Dew Point Humidity Pressure Visibility Wind Dir Wind Speed Gust Speed Precip Events Conditions
12:17 AM 66.6 °F 52.9 °F 61% 30.03 in 10.0 mi South 4.6 mph - N/A   Mostly Cloudy
12:36 AM 66.7 °F 52.7 °F 61% 30.03 in 10.0 mi South 3.5 mph - N/A   Mostly Cloudy
12:57 AM 66.6 °F 52.9 °F 61% 30.03 in 10.0 mi Calm Calm - N/A   Scattered Clouds
1:17 AM 66.0 °F 52.9 °F 63% 30.02 in 10.0 mi South 4.6 mph - N/A   Scattered Clouds
1:36 AM 66.2 °F 52.7 °F 62% 30.02 in 10.0 mi South 4.6 mph - N/A   Mostly Cloudy
1:57 AM 66.2 °F 52.7 °F 62% 30.02 in 10.0 mi South 4.6 mph - N/A   Overcast
2:17 AM 66.4 °F 52.7 °F 61% 30.01 in 10.0 mi SSW 4.6 mph - N/A   Mostly Cloudy
2:36 AM 66.2 °F 52.7 °F 62% 30.01 in 10.0 mi South 4.6 mph - N/A   Overcast
2:57 AM 66.2 °F 53.1 °F 63% 30.00 in 10.0 mi South 3.5 mph - N/A   Overcast
3:16 AM 66.4 °F 53.6 °F 63% 30.00 in 10.0 mi SSW 4.6 mph - N/A   Mostly Cloudy
3:36 AM 66.4 °F 54.0 °F 64% 30.00 in 10.0 mi SSW 4.6 mph - N/A   Mostly Cloudy
3:57 AM 66.6 °F 54.5 °F 65% 30.00 in 10.0 mi SSW 4.6 mph - N/A   Scattered Clouds
4:16 AM 66.2 °F 54.9 °F 67% 29.99 in 10.0 mi SSW 5.8 mph - N/A   Scattered Clouds
4:36 AM 67.3 °F 55.8 °F 66% 29.99 in 10.0 mi SW 5.8 mph - N/A   Mostly Cloudy
4:57 AM 68.0 °F 56.3 °F 66% 29.98 in 10.0 mi SW 6.9 mph - N/A   Scattered Clouds
5:16 AM 67.5 °F 56.3 °F 67% 29.98 in 10.0 mi SW 8.1 mph - N/A   Clear
5:37 AM 67.1 °F 56.5 °F 69% 29.97 in 10.0 mi SW 5.8 mph - N/A   Clear
5:57 AM 66.9 °F 56.8 °F 70% 29.97 in 10.0 mi SW 6.9 mph - N/A   Clear
6:16 AM 67.1 °F 57.2 °F 70% 29.97 in 10.0 mi SW 6.9 mph - N/A   Scattered Clouds
6:37 AM 66.7 °F 57.2 °F 71% 29.97 in 10.0 mi SW 6.9 mph - N/A   Mostly Cloudy
6:57 AM 67.1 °F 57.6 °F 71% 29.96 in 10.0 mi SW 6.9 mph - N/A   Mostly Cloudy
7:16 AM 67.1 °F 58.1 °F 73% 29.97 in 10.0 mi SW 5.8 mph - N/A   Mostly Cloudy
7:37 AM 67.3 °F 58.3 °F 73% 29.97 in 10.0 mi SW 8.1 mph - N/A   Overcast
7:57 AM 67.6 °F 58.8 °F 73% 29.97 in 10.0 mi WSW 5.8 mph - N/A   Overcast
8:16 AM 68.2 °F 59.2 °F 73% 29.97 in 10.0 mi WSW 6.9 mph - N/A   Overcast
8:37 AM 68.0 °F 59.7 °F 75% 29.96 in 10.0 mi SW 6.9 mph - N/A   Mostly Cloudy
8:57 AM 69.1 °F 60.3 °F 73% 29.96 in 10.0 mi SW 8.1 mph - N/A   Mostly Cloudy
9:16 AM 70.0 °F 61.2 °F 73% 29.95 in 10.0 mi SW 6.9 mph - N/A   Scattered Clouds
9:37 AM 70.3 °F 61.7 °F 74% 29.94 in 10.0 mi SW 6.9 mph - N/A   Mostly Cloudy
9:57 AM 69.1 °F 62.2 °F 79% 29.95 in 5.0 mi WSW 4.6 mph - 0.03 in Rain Heavy Rain
10:16 AM 68.0 °F 63.7 °F 86% 29.96 in 10.0 mi West 5.8 mph - 0.01 in Rain Rain
10:37 AM 68.2 °F 64.9 °F 89% 29.95 in 10.0 mi SSW 9.2 mph - 0.03 in Rain Light Rain
10:57 AM 69.1 °F 65.5 °F 88% 29.95 in 10.0 mi SW 5.8 mph - 0.03 in   Scattered Clouds
11:16 AM 69.3 °F 65.3 °F 87% 29.95 in 10.0 mi SW 4.6 mph - N/A   Scattered Clouds
11:37 AM 69.8 °F 65.5 °F 86% 29.95 in 10.0 mi SSW 6.9 mph - N/A   Scattered Clouds
11:57 AM 69.8 °F 65.5 °F 86% 29.94 in 10.0 mi South 5.8 mph - N/A   Clear
12:17 PM 70.2 °F 65.7 °F 86% 29.95 in 10.0 mi SSW 6.9 mph - N/A   Scattered Clouds
12:37 PM 71.2 °F 65.8 °F 83% 29.94 in 10.0 mi SW 6.9 mph - N/A   Scattered Clouds
12:57 PM 72.3 °F 66.4 °F 82% 29.94 in 10.0 mi SW 5.8 mph - N/A   Scattered Clouds
1:17 PM 72.9 °F 66.6 °F 81% 29.93 in 10.0 mi SW 6.9 mph - N/A   Mostly Cloudy
1:37 PM 73.6 °F 66.6 °F 79% 29.93 in 10.0 mi SW 5.8 mph - N/A   Mostly Cloudy
1:56 PM 74.3 °F 66.6 °F 77% 29.92 in 10.0 mi SSW 8.1 mph - N/A   Overcast
2:17 PM 76.3 °F 67.3 °F 74% 29.91 in 10.0 mi SSW 6.9 mph - N/A   Overcast
2:37 PM 77.2 °F 66.2 °F 69% 29.90 in 10.0 mi South 9.2 mph - N/A   Mostly Cloudy
2:56 PM 77.5 °F 66.4 °F 68% 29.89 in 10.0 mi SSW 6.9 mph - N/A   Scattered Clouds
3:17 PM 77.0 °F 66.7 °F 70% 29.89 in 10.0 mi SSW 5.8 mph - N/A   Mostly Cloudy
3:37 PM 76.1 °F 66.0 °F 71% 29.90 in 10.0 mi Calm Calm - N/A   Overcast
3:56 PM 74.8 °F 68.2 °F 80% 29.90 in 5.0 mi Calm Calm - 0.03 in Rain Heavy Rain
4:17 PM 73.4 °F 69.1 °F 86% 29.89 in 5.0 mi South 4.6 mph - 0.02 in Rain Light Rain
4:37 PM 74.3 °F 69.8 °F 86% 29.89 in 7.0 mi South 5.8 mph - 0.02 in   Overcast
4:56 PM 75.2 °F 70.3 °F 85% 29.89 in 7.0 mi SSE 5.8 mph - 0.02 in   Overcast
5:17 PM 76.6 °F 71.1 °F 83% 29.89 in 10.0 mi South 3.5 mph - N/A   Overcast
5:37 PM 77.9 °F 68.5 °F 73% 29.89 in 10.0 mi South 5.8 mph - N/A   Overcast
5:56 PM 77.4 °F 68.2 °F 73% 29.89 in 10.0 mi South 4.6 mph - N/A   Overcast
6:17 PM 77.5 °F 68.9 °F 75% 29.89 in 10.0 mi Calm Calm - N/A   Overcast
6:37 PM 77.7 °F 69.1 °F 75% 29.88 in 10.0 mi WSW 3.5 mph - N/A   Scattered Clouds
6:56 PM 77.0 °F 68.2 °F 74% 29.88 in 10.0 mi WSW 5.8 mph - N/A   Mostly Cloudy
7:17 PM 76.3 °F 66.7 °F 72% 29.89 in 10.0 mi WSW 5.8 mph - N/A   Scattered Clouds
7:37 PM 75.7 °F 66.2 °F 72% 29.89 in 10.0 mi WSW 8.1 mph - N/A   Mostly Cloudy
7:56 PM 74.8 °F 65.5 °F 73% 29.89 in 10.0 mi WSW 8.1 mph - N/A   Mostly Cloudy
8:17 PM 73.4 °F 65.3 °F 76% 29.90 in 10.0 mi WSW 5.8 mph - N/A   Scattered Clouds
8:36 PM 72.7 °F 65.5 °F 78% 29.92 in 10.0 mi West 4.6 mph - N/A   Clear
8:57 PM 71.6 °F 65.5 °F 81% 29.92 in 10.0 mi WSW 3.5 mph - N/A   Clear
9:17 PM 70.5 °F 65.7 °F 85% 29.93 in 10.0 mi Calm Calm - N/A   Clear
9:36 PM 70.5 °F 65.8 °F 85% 29.93 in 10.0 mi WSW 4.6 mph - N/A   Scattered Clouds
9:57 PM 70.7 °F 66.4 °F 86% 29.94 in 10.0 mi Calm Calm - N/A   Mostly Cloudy
10:17 PM 71.2 °F 65.8 °F 83% 29.94 in 10.0 mi Calm Calm - N/A   Mostly Cloudy
10:36 PM 70.7 °F 65.3 °F 83% 29.95 in 10.0 mi Calm Calm - N/A   Scattered Clouds
10:57 PM 70.0 °F 65.3 °F 85% 29.95 in 10.0 mi Calm Calm - N/A   Mostly Cloudy
11:17 PM 69.3 °F 65.1 °F 87% 29.96 in 10.0 mi Calm Calm - N/A   Scattered Clouds
11:36 PM 69.3 °F 65.3 °F 87% 29.96 in 10.0 mi West 3.5 mph - N/A   Mostly Cloudy
11:57 PM 69.6 °F 65.5 °F 87% 29.96 in 10.0 mi WNW 3.5 mph - N/A   Overcast